User: anonymous   Login
Location: Cranbrook Institute of Science
(42.5830°N, 83.2450°W)
Time: 04:15:15
(UTC-04:00)
Language:

CZ-4B R/B - Orbit

View from above orbital plane
View from above orbital plane
View from above satellite
View from above satellite

Ground track
Ground track

The orbit data is extracted from the following two-line orbital elements,

1 29093U 06015B   15116.14746115  .00009994  00000-0  30776-3 0  9995
2 29093 097.4936 202.6338 0078642 236.5457 182.3124 15.30791093497342
Epoch (UTC): 26 April 2015 03:32:20
Eccentricity: 0.0078642
inclination: 97.4936°
perigee height: 419 km
apogee height: 527 km
right ascension of ascending node: 202.6338°
argument of perigee: 236.5457°
revolutions per day: 15.30791093
mean anomaly at epoch: 182.3124°
orbit number at epoch: 49734

The dashed part of the orbit path shows where the satellite is in the earth's shadow,  

DLR